User: anonymous   Login
Location: Camerons Lookout
(40.9833°S, 175.9333°E)
Time: 13:02:22
(UTC+00:00)
Language:

Cosmos 1975 Rocket - Orbit

View from above orbital plane
View from above orbital plane
View from above satellite
View from above satellite

Ground track
Ground track

The orbit is defined by the following mean orbital elements,

1 19574U          26073.31897182 +.00000000 +00000-0 +77261-4 0 00003
2 19574  82.5313  37.6979 0021432  26.8912  84.7118 14.85662996    06
Epoch (UTC): 14 March 2026 07:39:19
Eccentricity: 0.0021432
inclination: 82.5313°
perigee height: 597 km
apogee height: 626 km
right ascension of ascending node: 37.6979°
argument of perigee: 26.8912°
revolutions per day: 14.85662996
mean anomaly at epoch: 84.7118°

The dashed part of the orbit path shows where the satellite is in the earth's shadow,  

DLR